Weather History for KW99 - April, 2014

Change the Weather History Date:

Sunday, April 13, 2014

  Actual Average (KEKN) Record (KEKN)
Temperature  
Mean Temperature 72 °F 49 °F  
Max Temperature 90 °F 62 °F 85 °F (2014)
Min Temperature 53 °F 36 °F 15 °F (1973)
Degree Days  
Heating Degree Days 0 16  
Month to date heating degree days 234  
Since 1 July heating degree days 5335  
Cooling Degree Days 6 0  
Month to date cooling degree days 0  
Year to date cooling degree days 0  
Growing Degree Days 22 (Base 50)    
Moisture  
Dew Point 51 °F    
Average Humidity 51    
Maximum Humidity 89    
Minimum Humidity 20    
Precipitation  
Precipitation 0.00 in 0.12 in 1.58 in (1972)
Month to date precipitation 1.63  
Year to date precipitation 11.92  
Snow  
Snow 0.00 in - - ()
Month to date snowfall  
Since 1 September snowfall  
Snow Depth -    
Sea Level Pressure  
Sea Level Pressure 30.02 in    
Wind  
Wind Speed 4 mph (South)    
Max Wind Speed 16 mph    
Max Gust Speed 23 mph    
Visibility 10 miles    
Events      
T = Trace of Precipitation, MM = Missing Value Source: NWS Daily Summary

Daily Weather History Graph

Daily Weather History Graph

Search for Another Location

Airport or City:

Trip Planner

Search our weather history database for the weather conditions in past years. The results will help you decide how hot, cold, wet, or windy it might be!

Date:

Astronomy

Apr. 13, 2014 Rise Set
Actual Time 6:42 AM EDT 7:51 PM EDT
Civil Twilight 6:15 AM EDT 8:19 PM EDT
Nautical Twilight 5:42 AM EDT 8:52 PM EDT
Astronomical Twilight 5:08 AM EDT 9:26 PM EDT
Moon 6:28 PM EDT (4/13) 5:39 AM EDT (4/13)
Length of Visible Light 14h 03m
Length of Day
13h 08m
Waxing Gibbous, 97% of the Moon is Illuminated
Apr 13
Waxing Gibbous
Apr 15
Full
Apr 22
Last Quarter
Apr 29
New
May 6
First Quarter

Hourly Weather History & Observations

Time (EDT) Temp. Heat Index Dew Point Humidity Pressure Visibility Wind Dir Wind Speed Gust Speed Precip Events Conditions
12:15 AM 57.7 °F - 50.9 °F 78% 30.08 in 10.0 mi Calm Calm - N/A   Clear
12:35 AM 57.4 °F - 51.3 °F 80% 30.07 in 10.0 mi Calm Calm - N/A   Clear
12:55 AM 57.7 °F - 51.8 °F 81% 30.07 in 10.0 mi Calm Calm - N/A   Clear
1:15 AM 57.0 °F - 51.4 °F 82% 30.07 in 10.0 mi Calm Calm - N/A   Clear
1:35 AM 56.7 °F - 50.9 °F 81% 30.06 in 10.0 mi Calm Calm - N/A   Clear
1:55 AM 57.0 °F - 51.4 °F 82% 30.06 in 10.0 mi Calm Calm - N/A   Clear
2:15 AM 57.4 °F - 53.1 °F 85% 30.06 in 10.0 mi Calm Calm - N/A   Clear
2:35 AM 57.9 °F - 52.2 °F 81% 30.05 in 10.0 mi Calm Calm - N/A   Clear
2:55 AM 57.9 °F - 51.8 °F 80% 30.05 in 10.0 mi Calm Calm - N/A   Clear
3:15 AM 55.6 °F - 51.1 °F 85% 30.05 in 10.0 mi Calm Calm - N/A   Clear
3:35 AM 54.1 °F - 50.0 °F 86% 30.05 in 10.0 mi Calm Calm - N/A   Clear
3:55 AM 54.3 °F - 50.5 °F 87% 30.05 in 10.0 mi Calm Calm - N/A   Clear
4:15 AM 54.3 °F - 50.4 °F 86% 30.05 in 10.0 mi Calm Calm - N/A   Clear
4:35 AM 55.0 °F - 51.4 °F 88% 30.05 in 10.0 mi Calm Calm - N/A   Clear
4:55 AM 54.7 °F - 50.9 °F 87% 30.06 in 10.0 mi Calm Calm - N/A   Clear
5:15 AM 54.5 °F - 51.1 °F 88% 30.07 in 10.0 mi Calm Calm - N/A   Clear
5:35 AM 53.6 °F - 50.4 °F 89% 30.07 in 10.0 mi SE 3.5 mph - N/A   Clear
6:15 AM 56.7 °F - 52.3 °F 85% 30.09 in 10.0 mi East 4.6 mph - N/A   Clear
6:35 AM 63.1 °F - 52.3 °F 68% 30.09 in 10.0 mi SE 5.8 mph - N/A   Clear
6:55 AM 55.2 °F - 50.5 °F 84% 30.09 in 10.0 mi WNW 3.5 mph - N/A   Clear
7:15 AM 54.1 °F - 50.9 °F 89% 30.11 in 10.0 mi Calm Calm - N/A   Clear
7:35 AM 56.7 °F - 53.6 °F 89% 30.10 in 10.0 mi Calm Calm - N/A   Clear
7:55 AM 59.0 °F - 55.6 °F 88% 30.10 in 10.0 mi Calm Calm - N/A   Clear
8:15 AM 62.4 °F - 57.4 °F 84% 30.11 in 10.0 mi Calm Calm - N/A   Clear
8:35 AM 65.5 °F - 57.6 °F 76% 30.11 in 10.0 mi Calm Calm - N/A   Clear
8:55 AM 72.0 °F - 55.0 °F 55% 30.10 in 10.0 mi SSW 5.8 mph - N/A   Clear
9:15 AM 74.5 °F - 53.8 °F 48% 30.11 in 10.0 mi South 10.4 mph - N/A   Clear
9:35 AM 75.7 °F - 53.6 °F 46% 30.11 in 10.0 mi South 10.4 mph - N/A   Scattered Clouds
9:55 AM 75.7 °F - 52.5 °F 44% 30.11 in 10.0 mi South 11.5 mph - N/A   Mostly Cloudy
10:15 AM 77.0 °F - 53.1 °F 43% 30.11 in 10.0 mi SSW 3.5 mph - N/A   Mostly Cloudy
10:35 AM 78.8 °F - 54.1 °F 42% 30.10 in 10.0 mi SSE 5.8 mph - N/A   Scattered Clouds
10:55 AM 80.4 °F - 51.4 °F 36% 30.10 in 10.0 mi Calm Calm - N/A   Scattered Clouds
11:15 AM 82.0 °F - 51.1 °F 34% 30.09 in 10.0 mi SW 16.1 mph 21.9 mph N/A   Scattered Clouds
11:35 AM 82.0 °F - 50.7 °F 34% 30.08 in 10.0 mi SW 10.4 mph - N/A   Clear
11:55 AM 83.3 °F - 51.1 °F 33% 30.07 in 10.0 mi SSW 10.4 mph - N/A   Clear
12:15 PM 83.8 °F - 50.2 °F 31% 30.05 in 10.0 mi SW 10.4 mph 16.1 mph N/A   Clear
12:35 PM 84.7 °F - 50.2 °F 30% 30.04 in 10.0 mi SW 11.5 mph 16.1 mph N/A   Clear
12:55 PM 85.5 °F - 50.7 °F 30% 30.02 in 10.0 mi South 6.9 mph - N/A   Clear
1:15 PM 85.8 °F - 49.6 °F 29% 30.01 in 10.0 mi South 10.4 mph - N/A   Clear
1:35 PM 87.3 °F - 50.9 °F 29% 30.00 in 10.0 mi South 9.2 mph 18.4 mph N/A   Clear
1:55 PM 88.2 °F - 48.6 °F 25% 30.00 in 10.0 mi South 12.7 mph 21.9 mph N/A   Clear
2:15 PM 88.7 °F - 47.1 °F 24% 29.99 in 10.0 mi SSW 9.2 mph 18.4 mph N/A   Clear
2:35 PM 89.2 °F - 48.4 °F 24% 29.98 in 10.0 mi SSW 11.5 mph 16.1 mph N/A   Clear
2:55 PM 89.4 °F - 46.4 °F 23% 29.97 in 10.0 mi SSW 11.5 mph 21.9 mph N/A   Clear
3:15 PM 89.1 °F - 48.7 °F 25% 29.96 in 10.0 mi SSW 11.5 mph 17.3 mph N/A   Clear
3:35 PM 89.6 °F - 47.8 °F 24% 29.95 in 10.0 mi South 8.1 mph 18.4 mph N/A   Clear
3:55 PM 90.0 °F - 46.6 °F 22% 29.94 in 10.0 mi SSE 10.4 mph 18.4 mph N/A   Clear
4:15 PM 89.2 °F - 46.0 °F 22% 29.93 in 10.0 mi SSW 16.1 mph - N/A   Clear
4:35 PM 89.2 °F - 47.1 °F 23% 29.93 in 10.0 mi SSW 10.4 mph 17.3 mph N/A   Clear
4:55 PM 90.1 °F - 44.1 °F 20% 29.93 in 10.0 mi South 13.8 mph 18.4 mph N/A   Clear
5:15 PM 89.1 °F - 45.0 °F 22% 29.93 in 10.0 mi SSE 16.1 mph 20.7 mph N/A   Clear
5:35 PM 89.6 °F - 45.0 °F 21% 29.93 in 10.0 mi South 11.5 mph 23.0 mph N/A   Clear
5:55 PM 88.7 °F - 46.6 °F 23% 29.94 in 10.0 mi SSW 12.7 mph 19.6 mph N/A   Clear
6:15 PM 87.4 °F - 49.6 °F 27% 29.94 in 10.0 mi South 16.1 mph 21.9 mph N/A   Clear
6:35 PM 86.9 °F - 50.4 °F 28% 29.94 in 10.0 mi SSE 13.8 mph 19.6 mph N/A   Clear
6:55 PM 85.8 °F - 51.6 °F 31% 29.94 in 10.0 mi SSE 11.5 mph 18.4 mph N/A   Clear
7:15 PM 85.3 °F - 52.0 °F 32% 29.94 in 10.0 mi SSE 9.2 mph - N/A   Clear
7:35 PM 84.7 °F - 52.3 °F 33% 29.94 in 10.0 mi South 8.1 mph 17.3 mph N/A   Clear
7:55 PM 84.2 °F - 52.9 °F 34% 29.94 in 10.0 mi South 9.2 mph 16.1 mph N/A   Clear
8:15 PM 83.3 °F - 52.9 °F 35% 29.95 in 10.0 mi South 6.9 mph 18.4 mph N/A   Clear
8:35 PM 82.2 °F 81.2 °F 53.1 °F 36% 29.96 in 10.0 mi SSE 6.9 mph - N/A   Clear
8:55 PM 81.3 °F 80.7 °F 53.6 °F 38% 29.96 in 10.0 mi SSE 4.6 mph - N/A   Clear
9:15 PM 80.8 °F 80.4 °F 53.4 °F 39% 29.96 in 10.0 mi South 9.2 mph - N/A   Clear
9:35 PM 80.4 °F 80.1 °F 53.4 °F 39% 29.96 in 10.0 mi South 8.1 mph 21.9 mph N/A   Clear
9:55 PM 79.0 °F - 53.6 °F 41% 29.97 in 10.0 mi South 5.8 mph - N/A   Clear
10:15 PM 78.3 °F - 53.6 °F 42% 29.97 in 10.0 mi South 8.1 mph - N/A   Clear
10:35 PM 77.4 °F - 53.8 °F 44% 29.97 in 10.0 mi SSW 4.6 mph - N/A   Clear
10:55 PM 76.3 °F - 53.6 °F 45% 29.97 in 10.0 mi SE 3.5 mph - N/A   Clear
11:15 PM 74.8 °F - 53.8 °F 48% 29.97 in 10.0 mi Calm Calm - N/A   Clear
11:35 PM 74.8 °F - 53.6 °F 47% 29.97 in 10.0 mi SSE 5.8 mph - N/A   Clear
11:55 PM 74.5 °F - 54.3 °F 49% 29.97 in 10.0 mi SE 4.6 mph - N/A   Clear